Weather Roundup
Issued by NWS Chicago, IL

Home | Current Version | Previous Version | Graphics & Text | Print | Product List | Glossary On
Versions: 1 2 3 4 5 6 7 8 9 10 11 12 13 14 15 16 17 18 19 20 21 22 23 24 25 26 27 28 29 30 31 32 33 34 35 36 37 38 39 40 41 42 43 44 45 46 47 48 49 50
000
NZUS59 KLOT 052112
HRRLOT

CHICAGO AREA WEATHER ROUNDUP
NATIONAL WEATHER SERVICE CHICAGO/ROMEOVILLE IL
400 PM CDT SUN JUL 05 2015

NOTE: "FAIR" INDICATES FEW OR NO CLOUDS BELOW 12,000 FEET WITH NO
SIGNIFICANT WEATHER AND/OR OBSTRUCTIONS TO VISIBILITY.

* THESE STATIONS ARE NOT UNDER NWS QUALITY CONTROL. THEY ALSO MAY NOT
  REPORT WEATHER SUCH AS PRECIPITATION OR FOG.

ILZ005-006-012>014-019>023-052200-
NORTHEAST ILLINOIS

CITY           SKY/WX    TMP DP  RH WIND       PRES   REMARKS
OHARE          MOSUNNY   82  59  45 S9        30.04S HX  82
MIDWAY         MOSUNNY   84  59  42 S7        30.04S HX  84
AURORA         SUNNY     82  61  48 S12G17    30.05S HX  83
LANSING*       PTSUNNY   82  58  43 SE9       30.05S HX  82
JOLIET*        SUNNY     83  64  53 SE7       30.04F HX  84
WAUKEGAN       SUNNY     75  60  59 E9        30.05S
DUPAGE AIRPORT SUNNY     82  62  50 S8        30.04S HX  83
WHEELING       SUNNY     83  59  44 S10       30.05S HX  83
KANKAKEE*      SUNNY     83  64  52 S3        30.06F HX  84
MORRIS*        SUNNY     82  61  49 S12       30.04S HX  83
LEWIS AIRPORT* SUNNY     82  59  46 S9        30.05S HX  82
NORTHERLY IS     N/A     73  62  68 E13         N/A
$$

WIZ051-052-058>065-066-070>072-052200-
SOUTHEAST WISCONSIN

CITY           SKY/WX    TMP DP  RH WIND       PRES   REMARKS
MILWAUKEE      MOSUNNY   78  60  53 SE16      30.04S
KENOSHA*       SUNNY     79  61  53 SE14      30.05S HX  80
RACINE*        SUNNY     77  59  53 S10       30.06F
BURLINGTON     SUNNY     80  61  52 SW8       30.03F HX  81
WAUKESHA       MOSUNNY   79  61  53 S14       30.04F HX  80
WEST BEND      SUNNY     81  59  47 S6        30.02F HX  81
$$

INZ001>003-010>013-019-020-052200-
NORTHWEST INDIANA

CITY           SKY/WX    TMP DP  RH WIND       PRES   REMARKS
GARY*          MOSUNNY  N/A N/A N/A S8        30.06S
MICHIGAN CITY* NOT AVBL
RENSSELAER*    NOT AVBL
VALPARAISO     SUNNY     82  59  45 S6        30.07F HX  82
$$

LMZ740>746-052200-
SOUTHERN LAKE MICHIGAN

STATION/POSITION TIME  SKY/WX   TEMP WIND        PRES    VSBY
                                AIR  DIR/SP/G
                 (UTC)          (F)  (DEG/KT/KT) (MB)    (MI)
HARRISON CRIB    2000            71  100/ 14/ 16   N/A
BURNHAM HARBOR   2100            73  100/ 11/ 11   N/A
CALUMET HARBOR   2000            74   50/  8/ 11   N/A
BURNS HARBOR     2000            74   80/  7/ 10 1018.6F
MICHIGAN CITY    2000            69   10/  6/  6   N/A
$$

ABBREVIATIONS USED IN REMARKS
   TC - TEMPERATURE IN CELSIUS
  WCI - WIND CHILL INDEX
   HX - HEAT INDEX
  VSB - VISIBILITY
$$


USA.gov is the U.S. government's official web portal to all federal, state and local government web resources and services.